Home   Weather   Elbląg   Past weeks

Flag for Poland Past Weather in Elbląg, Poland — Yesterday and Last 2 Weeks

Now
60 °F

Overcast.


Feels Like: 59 °F
Forecast: 58 / 69 °F
Wind: 6 mph from Southwest

Location: Hel

Current Time: Sep 28, 2016 at 5:25:09 PM

Latest Report: Sep 28, 2016 at 4:00 PM


Visibility: 11 mi

Pressure: 29.94 "Hg

Humidity: 88%

Dew Point: 56 °F

Location of ElblągLocation

Past Weather in Elbląg — Graph

°F

Elbląg Temperature Yesterday

Maximum temperature yesterday: 57 °F (at 3:00 PM)
Minimum temperature yesterday: 48 °F (at 7:00 AM)
Average temperature yesterday: 53 °F

High & Low Weather Summary for the Past Weeks

 TemperatureHumidityPressure
High68 °F (Sep 14, 1:00 PM)98% (Sep 14, 8:00 AM)30.39 "Hg (Sep 14, 8:00 AM)
Low48 °F (Sep 27, 7:00 AM)45% (Sep 19, 12:00 PM)29.94 "Hg (Sep 28, 4:00 PM)
Average58 °F80%30.16 "Hg
* Reported Sep 13 5:00 PM — Sep 28 4:00 PM, Elbląg, Weather by CustomWeather, © 2016

Note: Actual official high and low records may vary slightly from our data, if they occured in-between our weather recording intervals... More about our weather records

Advertising

Elbląg Weather History for the Previous 24 Hours

Scroll right to see more
 ConditionsComfort  
Time TempWeatherWind HumidityBarometerVisibility
4:00 PM
Wed, Sep 28
60 °FOvercast.6 mph88%29.94 "Hg11 mi
3:00 PM59 °FOvercast.7 mph89%29.95 "Hg11 mi
2:00 PM58 °FSprinkles. Overcast.7 mph92%29.96 "Hg6 mi
1:00 PM58 °FSprinkles. Overcast.7 mph90%29.98 "Hg4 mi
12:00 PM59 °FOvercast.7 mph80%29.98 "Hg9 mi
11:00 AM57 °FOvercast.7 mph79%30.02 "Hg7 mi
10:00 AM56 °FOvercast.6 mph79%30.06 "Hg9 mi
9:00 AM56 °FOvercast.6 mph81%30.06 "Hg9 mi
8:00 AM54 °FOvercast.6 mph85%30.10 "Hg9 mi
7:00 AM54 °FOvercast.5 mph79%30.14 "Hg11 mi
6:00 AM54 °FPassing clouds.3 mph77%30.17 "Hg11 mi
5:00 AM54 °FFog.6 mph76%30.19 "Hg4 mi
4:00 AM54 °FFog.5 mph78%30.22 "Hg4 mi
3:00 AM54 °FClear.5 mph77%30.25 "Hg6 mi
2:00 AM54 °FClear.5 mph75%30.27 "Hg6 mi
1:00 AM54 °FClear.5 mph72%30.29 "Hg6 mi
12:00 AM55 °FClear.5 mph73%30.30 "Hg11 mi
11:00 PM
Tue, Sep 27
55 °FClear.6 mph71%30.31 "Hg11 mi
10:00 PM55 °FClear.5 mph72%30.33 "Hg12 mi
9:00 PM54 °FClear.5 mph75%30.34 "Hg12 mi
8:00 PM53 °FClear.5 mph75%30.35 "Hg12 mi
7:00 PM54 °FClear.3 mph77%30.34 "Hg12 mi
6:00 PM55 °FSunny.5 mph73%30.34 "Hg12 mi
5:00 PM56 °FSunny.3 mph69%30.35 "Hg11 mi
Weather by CustomWeather, © 2016

See weather overviewHow to use our weather pages